FW6809 Weather Reports


Display with metric or nautical units.
time (UTC)temp
F
wind
direction
speed
MPH
gust
MPH
rain 1hr
in
rain 24hr
in
rain mn
in
humidity
%
barometer
mb
20260902094600 68 0 0.0 0.0 0.00 0.00 0.00 100 1021.3
20260902093056 68 0 0.0 0.0 0.00 0.00 0.00 100 1021.3
20260902091559 68 0 0.0 0.0 0.00 0.00 0.00 100 1021.3
20260902090057 68 0 0.0 0.0 0.00 0.00 0.00 100 1021.1
20260902084602 68 0 0.0 0.0 0.00 0.00 0.00 100 1020.9
20260902083108 68 0 0.0 0.0 0.00 0.00 0.00 100 1020.9
20260902081559 68 0 0.0 0.0 0.00 0.00 0.00 100 1020.9
20260902080112 68 0 0.0 0.0 0.00 0.00 0.00 100 1020.7
20260902074606 69 0 0.0 0.0 0.00 0.00 0.00 100 1020.6
20260902073052 69 0 0.0 0.0 0.00 0.00 0.00 100 1020.6
20260902071603 69 0 0.0 0.0 0.00 0.00 0.00 100 1020.5
20260902070058 69 0 0.0 0.0 0.00 0.00 0.00 99 1020.6
20260902064603 69 0 0.0 0.0 0.00 0.00 0.00 99 1020.7
20260902063104 69 0 0.0 0.0 0.00 0.00 0.00 99 1020.8
20260902061613 69 0 0.0 0.0 0.00 0.00 0.00 99 1020.9
20260902060055 70 0 0.0 0.0 0.00 0.00 0.00 99 1020.9
20260902054553 70 0 0.0 0.0 0.00 0.00 0.00 99 1021.0
20260902053054 70 0 0.0 0.0 0.00 0.00 0.00 99 1021.1
20260902051557 70 0 0.0 0.0 0.00 0.00 0.00 99 1021.0
20260902044550 70 0 0.0 0.0 0.00 0.00 0.00 99 1021.0
20260902043104 71 0 0.0 0.0 0.00 0.00 0.00 99 1021.2
20260902041601 71 0 0.0 0.0 0.00 0.00 0.00 98 1021.2
20260902040054 71 0 0.0 0.0 0.00 0.00 0.00 98 1021.2
20260902034602 71 0 0.0 0.0 0.00 0.00 0.00 98 1021.2
20260902033109 71 0 0.0 0.0 0.00 0.00 0.00 98 1021.2
20260902031606 72 0 0.0 0.0 0.00 0.00 0.00 97 1021.3
20260902030052 72 0 0.0 0.0 0.00 0.00 0.00 97 1021.2
20260902024555 73 0 0.0 0.0 0.00 0.00 0.00 97 1021.3
20260902023106 73 0 0.0 0.0 0.00 0.00 0.00 96 1021.2
20260902021609 73 0 0.0 0.0 0.00 0.00 0.00 96 1021.0
20260902020105 74 0 0.0 0.0 0.00 0.00 0.00 96 1021.0
20260902014554 74 0 0.0 0.0 0.00 0.00 0.00 96 1020.9
20260902013100 75 0 0.0 0.0 0.00 0.00 0.00 95 1020.8
20260902011551 75 0 0.0 0.0 0.00 0.00 0.00 95 1020.7
20260902010056 76 0 0.0 0.0 0.00 0.00 0.00 94 1020.7
20260902004556 76 0 0.0 0.0 0.00 0.00 0.00 94 1020.4
20260902003053 77 0 0.0 0.0 0.00 0.00 0.00 93 1020.3
20260902001557 78 0 0.0 0.0 0.00 0.00 0.00 92 1020.3
20260902000056 79 0 0.0 0.0 0.00 0.00 0.00 90 1020.4
20260901234606 80 0 0.0 0.0 0.00 0.00 0.00 89 1020.4
20260901233105 81 0 0.0 0.0 0.00 0.00 0.00 86 1020.5
20260901231558 83 0 0.0 0.0 0.00 0.00 0.00 83 1020.6
20260901230058 84 0 0.0 0.0 0.00 0.00 0.00 80 1020.6
20260901224600 86 0 0.0 0.0 0.00 0.00 0.00 76 1020.5
20260901223055 87 0 0.0 0.0 0.00 0.00 0.00 67 1020.3
20260901221617 87 0 0.0 0.0 0.00 0.00 0.00 66 1020.3
20260901220125 88 0 0.0 3.0 0.00 0.00 0.00 63 1020.3
20260901214555 89 0 0.0 4.0 0.00 0.00 0.00 62 1020.2
20260901213110 89 0 0.0 0.0 0.00 0.00 0.00 61 1020.3
20260901211558 89 118 0.0 4.0 0.00 0.00 0.00 61 1020.3
20260901210057 89 0 0.0 2.0 0.00 0.00 0.00 58 1020.5
20260901204554 88 0 0.0 0.0 0.00 0.00 0.00 62 1020.6
20260901203106 89 126 0.0 6.0 0.00 0.00 0.00 58 1020.9
20260901201557 89 0 0.0 3.0 0.00 0.00 0.00 62 1021.0
20260901200100 88 0 0.0 2.0 0.00 0.00 0.00 65 1021.2
20260901194602 90 0 0.0 3.0 0.00 0.00 0.00 64 1021.1
20260901193104 89 0 0.0 1.0 0.00 0.00 0.00 64 1021.4
20260901191614 89 0 0.0 2.0 0.00 0.00 0.00 63 1021.7
20260901190056 89 0 0.0 2.0 0.00 0.00 0.00 62 1021.8
20260901184605 89 144 0.0 4.0 0.00 0.00 0.00 62 1021.9
20260901183056 90 154 0.0 2.0 0.00 0.00 0.00 61 1021.8
20260901181553 90 129 0.0 5.0 0.00 0.00 0.00 63 1022.0
20260901174603 90 0 0.0 2.0 0.00 0.00 0.00 62 1022.3
20260901173103 90 127 0.0 2.0 0.00 0.00 0.00 61 1022.6
20260901171610 89 0 0.0 4.0 0.00 0.00 0.00 64 1022.7
20260901170058 89 0 0.0 4.0 0.00 0.00 0.00 61 1022.9
20260901164556 89 0 0.0 3.0 0.00 0.00 0.00 67 1023.0
20260901163106 88 124 0.0 1.0 0.00 0.00 0.00 68 1023.3
20260901161557 87 130 0.0 3.0 0.00 0.00 0.00 67 1023.4
20260901160106 87 0 0.0 2.0 0.00 0.00 0.00 70 1023.7
20260901154557 87 162 0.0 3.0 0.00 0.00 0.00 69 1023.9
20260901153105 86 0 0.0 3.0 0.00 0.00 0.00 69 1024.0
20260901151554 86 0 0.0 1.0 0.00 0.00 0.00 70 1024.0
20260901144556 86 0 0.0 0.0 0.00 0.00 0.00 70 1023.8
20260901143056 85 0 0.0 0.0 0.00 0.00 0.00 78 1023.8
20260901141557 84 0 0.0 0.0 0.00 0.00 0.00 81 1023.8
20260901140058 83 0 0.0 0.0 0.00 0.00 0.00 82 1023.7
20260901134606 82 0 0.0 0.0 0.00 0.00 0.00 82 1023.6
20260901133053 81 0 0.0 0.0 0.00 0.00 0.00 86 1023.6
20260901131604 78 0 0.0 0.0 0.00 0.00 0.00 87 1023.6
20260901130059 77 0 0.0 0.0 0.00 0.00 0.00 88 1023.5
20260901124556 75 0 0.0 0.0 0.00 0.00 0.00 91 1023.4
20260901123052 72 0 0.0 0.0 0.00 0.00 0.00 99 1023.5
20260901121558 69 0 0.0 0.0 0.00 0.00 0.00 100 1023.4
20260901120057 67 0 0.0 0.0 0.00 0.00 0.00 100 1023.2
20260901114554 67 0 0.0 0.0 0.00 0.00 0.00 100 1022.8
20260901113115 67 0 0.0 0.0 0.00 0.00 0.00 100 1022.8
20260901111557 66 0 0.0 0.0 0.00 0.00 0.00 100 1022.5
20260901110107 67 0 0.0 0.0 0.00 0.00 0.00 100 1022.3
20260901104606 67 0 0.0 0.0 0.00 0.00 0.00 100 1022.2
20260901103059 67 0 0.0 0.0 0.00 0.00 0.00 100 1022.2
20260901101556 67 0 0.0 0.0 0.00 0.00 0.00 100 1022.1
20260901100054 67 0 0.0 0.0 0.00 0.00 0.00 100 1022.1